Tracking 26894 objects as of 1-Feb-2023
HD Live streaming from Space Station
objects crossing your sky now

YAOGAN-30 P

Track YAOGAN-30 P now!
10-day predictions


NORAD ID: 44450
Int'l Code: 2019-045B
Perigee: 594.7 km
Apogee: 607.0 km
Inclination: 35.0 °
Period: 96.6 minutes
Semi major axis: 6971 km
RCS: Unknown
Launch date: July 26, 2019
Source: People's Republic of China (PRC)
Launch site: Xichang Space Center, China (XSC)
Your satellite tracking list
Your tracking list is empty




NASA's NSSDC Master Catalog

Two Line Element Set (TLE):
1 44450U 19045B   23032.54530972  .00002471  00000-0  24560-3 0  9995
2 44450  34.9945 210.6365 0008869 188.6267 171.4251 14.91351378191986
Source of the keplerian elements: AFSPC